Location: Gleizolles
(44.4833°N, 6.7667°E)
Time: 16:04:41
(UTC+00:00)

Tiros 1 - Pass Details

Date: 01 July 2024
Orbit: 624 x 656 km, 48.4° (Epoch: 13 July)

Event Time Altitude Azimuth Distance (km) Brightness Sun altitude
Rises 02:16:14 0° 291° (WNW) 2,910 10.3 -13.3°
Reaches altitude 10° 02:18:41 10° 283° (WNW) 2,003 9.4 -13.0°
Maximum altitude 02:22:54 36° 216° (SW) 992 7.6 -12.5°
Drops below altitude 10° 02:27:08 10° 150° (SSE) 2,010 9.5 -12.0°
Sets 02:29:35 0° 142° (SE) 2,921 10.4 -11.8°
